Tracking 23586 objects as of 6-Aug-2021
HD Live streaming from Space Station
objects crossing your sky now

GUARANISAT-1 (BIRDS-4)

Track GUARANISAT-1 (BIRDS-4) now!
10-day predictions
GUARANISAT-1 (BIRDS-4) is classified as:


NORAD ID: 47931
Int'l Code: 1998-067SH
Perigee: 415.5 km
Apogee: 418.3 km
Inclination: 51.6 °
Period: 92.8 minutes
Semi major axis: 6787 km
RCS: Unknown
Launch date: November 20, 1998
Source: (TBD)
Launch site: TYURATAM MISSILE AND SPACE COMPLEX (TTMTR)

Uplink (MHz): 145.825
Downlink (MHz): 145.825
Beacon (MHz): 437.375
Mode: 4k8FSK APRS CW
Call sign: JG6YMZ
Status: Active

aabbcc
Your satellite tracking list
Your tracking list is empty




NASA's NSSDC Master Catalog

Two Line Element Set (TLE):
1 47931U 98067SH  21217.37378103  .00007167  00000-0  12281-3 0  9997
2 47931  51.6432  97.1918 0002049 190.6260 169.4687 15.52372835 22377
Source of the keplerian elements: Caltech